{"data":{"norad_id":58886,"intl_designator":"2024-020L","name":"STARLINK-31320","alt_names":[],"object_type":"PAYLOAD","status":"ACTIVE","operator":null,"country":"US","launch_date":"2024-01-29","launch_site_code":"AFWTR","launch_vehicle":null,"mission":null,"orbit_class":"UNKNOWN","rcs_meters":null,"size_class":null,"mass_kg":null,"dimensions":null,"purposes":["comms"],"wikipedia_slug":null,"has_3d_model":false,"image_url":null,"decayed_at":null,"tle_current":{"epoch":"2026-05-25T04:42:06.541920Z","epoch_age_seconds":58448,"freshness":"FRESH","line1":"1 58886U 24020L   26145.19590905  .00001985  00000+0  69874-4 0  9999","line2":"2 58886  53.1606 326.4123 0001045  79.2614 280.8506 15.34394295129790","mean_motion":15.34394295,"eccentricity":0.0001045,"inclination_deg":53.1606,"raan_deg":326.4123,"arg_perigee_deg":79.2614,"mean_anomaly_deg":280.8506,"bstar":6.9874e-5,"rev_number":12979,"period_min":93.848107014762,"perigee_km":462.00532714486,"apogee_km":463.43506629897,"semimajor_km":6840.8571967219,"source":"CELESTRAK","updated_at":"2026-05-25T13:38:18.785747Z"}}}